AAL1813 MBPV-KMIA

Flight info

Callsign AAL1813
Flight time 1h 27m
Altitude 38000
Route FODED Y308 MADIZ VIICE2
Aircraft B738/M-SDE2E3FGHIRWXY/LB1

Departure

Time 2026-05-07 22:57
Airport Providenciales International Airport (MBPV)

Arrival

Time 2026-05-08 00:24
Airport Miami International Airport (KMIA)
Time Latitude Longitude Altitude Speed Heading
2026-05-07 22:24 21.77576 -72.27192 44 ft 0 kts 33°
2026-05-07 22:48 21.77573 -72.27194 44 ft 3 kts 33°
2026-05-07 22:48 21.77551 -72.27209 43 ft 4 kts 25°
2026-05-07 22:49 21.77527 -72.27216 42 ft 4 kts 350°
2026-05-07 22:49 21.77508 -72.27204 42 ft 3 kts 289°
2026-05-07 22:49 21.77506 -72.27196 41 ft 0 kts 286°
2026-05-07 22:52 21.77509 -72.27207 44 ft 3 kts 285°
2026-05-07 22:53 21.77516 -72.27245 44 ft 7 kts 277°
2026-05-07 22:53 21.77520 -72.27310 44 ft 11 kts 274°
2026-05-07 22:53 21.77526 -72.27402 42 ft 14 kts 271°
2026-05-07 22:53 21.77458 -72.27463 44 ft 13 kts 183°
2026-05-07 22:54 21.77407 -72.27527 44 ft 14 kts 267°
2026-05-07 22:54 21.77411 -72.27644 43 ft 17 kts 274°
2026-05-07 22:54 21.77419 -72.27796 44 ft 24 kts 272°
2026-05-07 22:54 21.77428 -72.27991 43 ft 27 kts 272°
2026-05-07 22:55 21.77457 -72.28132 43 ft 16 kts 301°
2026-05-07 22:55 21.77476 -72.28179 43 ft 0 kts 277°
2026-05-07 22:55 21.77476 -72.28185 43 ft 2 kts 266°
2026-05-07 22:55 21.77455 -72.28207 42 ft 6 kts 182°
2026-05-07 22:56 21.77437 -72.28172 41 ft 8 kts 94°
2026-05-07 22:56 21.77428 -72.27987 43 ft 49 kts 92°
2026-05-07 22:56 21.77395 -72.27346 42 ft 120 kts 93°
2026-05-07 22:56 21.77343 -72.26275 239 ft 158 kts 94°
2026-05-07 22:57 21.77300 -72.25097 964 ft 157 kts 92°
2026-05-07 22:57 21.77240 -72.23913 1643 ft 164 kts 92°
2026-05-07 22:57 21.77174 -72.22604 2066 ft 181 kts 93°
2026-05-07 22:57 21.77105 -72.21173 2423 ft 205 kts 93°
2026-05-07 22:58 21.77049 -72.19553 2614 ft 229 kts 86°
2026-05-07 22:58 21.77599 -72.17860 2897 ft 253 kts 55°
2026-05-07 22:58 21.78974 -72.16629 3536 ft 264 kts 26°
2026-05-07 22:58 21.80761 -72.16240 4287 ft 270 kts 358°
2026-05-07 22:59 21.82575 -72.16794 5048 ft 276 kts 330°
2026-05-07 22:59 21.83990 -72.18193 5811 ft 279 kts 305°
2026-05-07 22:59 21.85007 -72.19989 6606 ft 281 kts 300°
2026-05-07 22:59 21.85967 -72.21837 7342 ft 283 kts 299°
2026-05-07 23:00 21.86926 -72.23705 8088 ft 286 kts 299°
2026-05-07 23:00 21.87880 -72.25570 8845 ft 289 kts 299°
2026-05-07 23:00 21.88897 -72.27456 9651 ft 292 kts 302°
2026-05-07 23:00 21.89990 -72.29320 10372 ft 298 kts 303°
2026-05-07 23:01 21.91157 -72.31269 10587 ft 322 kts 303°
2026-05-07 23:01 21.92416 -72.33370 10794 ft 343 kts 303°
2026-05-07 23:01 21.93727 -72.35568 11285 ft 352 kts 303°
2026-05-07 23:01 21.95033 -72.37768 11975 ft 353 kts 303°
2026-05-07 23:02 21.96364 -72.40020 12706 ft 356 kts 303°
2026-05-07 23:02 21.97699 -72.42287 13396 ft 359 kts 303°
2026-05-07 23:02 21.99041 -72.44571 14067 ft 362 kts 303°
2026-05-07 23:02 22.00380 -72.46853 14663 ft 366 kts 303°
2026-05-07 23:03 22.01752 -72.49193 15251 ft 371 kts 303°
2026-05-07 23:03 22.03141 -72.51563 15822 ft 376 kts 304°
2026-05-07 23:03 22.04548 -72.53966 16407 ft 380 kts 304°
2026-05-07 23:03 22.05966 -72.56391 16979 ft 384 kts 304°
2026-05-07 23:04 22.07404 -72.58849 17541 ft 389 kts 304°
2026-05-07 23:04 22.08841 -72.61308 18081 ft 394 kts 304°
2026-05-07 23:04 22.10306 -72.63816 18587 ft 398 kts 305°
2026-05-07 23:04 22.11784 -72.66348 19109 ft 399 kts 305°
2026-05-07 23:05 22.13269 -72.68894 19682 ft 400 kts 305°
2026-05-07 23:05 22.14755 -72.71442 20244 ft 401 kts 305°
2026-05-07 23:05 22.16247 -72.74003 20774 ft 403 kts 305°
2026-05-07 23:05 22.17724 -72.76537 21284 ft 405 kts 305°
2026-05-07 23:06 22.19228 -72.79120 21799 ft 406 kts 305°
2026-05-07 23:06 22.20740 -72.81717 22302 ft 408 kts 305°
2026-05-07 23:06 22.22256 -72.84323 22812 ft 410 kts 305°
2026-05-07 23:06 22.23758 -72.86905 23299 ft 412 kts 305°
2026-05-07 23:07 22.25285 -72.89532 23746 ft 414 kts 305°
2026-05-07 23:07 22.26818 -72.92171 24132 ft 416 kts 305°
2026-05-07 23:07 22.28360 -72.94825 24503 ft 418 kts 305°
2026-05-07 23:07 22.29912 -72.97499 24863 ft 420 kts 305°
2026-05-07 23:08 22.31452 -73.00154 25215 ft 423 kts 305°
2026-05-07 23:08 22.33021 -73.02859 25573 ft 425 kts 305°
2026-05-07 23:08 22.34596 -73.05578 25926 ft 427 kts 305°
2026-05-07 23:08 22.36178 -73.08308 26285 ft 429 kts 305°
2026-05-07 23:09 22.37766 -73.11052 26628 ft 431 kts 305°
2026-05-07 23:09 22.39343 -73.13777 26960 ft 433 kts 305°
2026-05-07 23:09 22.40947 -73.16551 27287 ft 436 kts 305°
2026-05-07 23:09 22.42561 -73.19343 27610 ft 438 kts 304°
2026-05-07 23:10 22.44180 -73.22147 27930 ft 440 kts 304°
2026-05-07 23:10 22.45805 -73.24960 28244 ft 442 kts 304°
2026-05-07 23:10 22.47419 -73.27757 28553 ft 444 kts 304°
2026-05-07 23:10 22.49057 -73.30598 28850 ft 446 kts 304°
2026-05-07 23:11 22.50705 -73.33456 29142 ft 448 kts 304°
2026-05-07 23:11 22.52363 -73.36334 29428 ft 450 kts 304°
2026-05-07 23:11 22.54002 -73.39180 29698 ft 452 kts 304°
2026-05-07 23:11 22.55667 -73.42074 29974 ft 454 kts 304°
2026-05-07 23:12 22.57340 -73.44982 30232 ft 455 kts 304°
2026-05-07 23:12 22.59017 -73.47900 30474 ft 456 kts 304°
2026-05-07 23:12 22.60692 -73.50815 30809 ft 455 kts 304°
2026-05-07 23:12 22.62363 -73.53727 31176 ft 453 kts 304°
2026-05-07 23:13 22.64007 -73.56592 31515 ft 452 kts 304°
2026-05-07 23:13 22.65667 -73.59487 31828 ft 452 kts 304°
2026-05-07 23:13 22.67329 -73.62386 32150 ft 452 kts 303°
2026-05-07 23:13 22.68988 -73.65282 32490 ft 451 kts 303°
2026-05-07 23:14 22.70646 -73.68177 32844 ft 450 kts 303°
2026-05-07 23:14 22.72297 -73.71060 33197 ft 450 kts 303°
2026-05-07 23:14 22.73927 -73.73910 33519 ft 449 kts 303°
2026-05-07 23:14 22.75575 -73.76794 33869 ft 449 kts 303°
2026-05-07 23:15 22.77217 -73.79666 34197 ft 448 kts 303°
2026-05-07 23:15 22.78851 -73.82528 34500 ft 447 kts 303°
2026-05-07 23:15 22.80489 -73.85398 34784 ft 446 kts 303°
2026-05-07 23:15 22.82127 -73.88268 35076 ft 446 kts 303°
2026-05-07 23:16 22.83737 -73.91092 35380 ft 444 kts 303°
2026-05-07 23:16 22.85363 -73.93947 35681 ft 444 kts 303°
2026-05-07 23:16 22.86988 -73.96798 35954 ft 444 kts 303°
2026-05-07 23:16 22.88611 -73.99650 36223 ft 443 kts 303°
2026-05-07 23:17 22.90208 -74.02458 36512 ft 442 kts 303°
2026-05-07 23:17 22.91819 -74.05292 36801 ft 441 kts 303°
2026-05-07 23:17 22.93429 -74.08125 37074 ft 440 kts 303°
2026-05-07 23:17 22.95036 -74.10954 37362 ft 439 kts 303°
2026-05-07 23:18 22.96638 -74.13777 37650 ft 438 kts 303°
2026-05-07 23:18 22.98241 -74.16602 37905 ft 438 kts 303°
2026-05-07 23:18 22.99821 -74.19389 38044 ft 440 kts 303°
2026-05-07 23:19 23.03037 -74.25064 38037 ft 440 kts 303°
2026-05-07 23:19 23.06224 -74.30698 38033 ft 435 kts 303°
2026-05-07 23:20 23.09364 -74.36252 38039 ft 432 kts 303°
2026-05-07 23:20 23.12504 -74.41812 38041 ft 430 kts 303°
2026-05-07 23:21 23.15637 -74.47366 38048 ft 430 kts 303°
2026-05-07 23:21 23.18766 -74.52919 38050 ft 431 kts 303°
2026-05-07 23:22 23.21881 -74.58454 38044 ft 433 kts 303°
2026-05-07 23:22 23.25033 -74.64061 38045 ft 435 kts 303°
2026-05-07 23:23 23.28198 -74.69696 38046 ft 437 kts 303°
2026-05-07 23:23 23.31367 -74.75347 38042 ft 438 kts 303°
2026-05-07 23:24 23.34526 -74.80985 38043 ft 439 kts 303°
2026-05-07 23:24 23.37710 -74.86674 38042 ft 439 kts 303°
2026-05-07 23:25 23.40414 -74.92639 38044 ft 441 kts 291°
2026-05-07 23:25 23.42320 -74.98949 38043 ft 440 kts 290°
2026-05-07 23:26 23.44200 -75.05310 38041 ft 439 kts 290°
2026-05-07 23:26 23.46085 -75.11593 38042 ft 438 kts 290°
2026-05-07 23:27 23.48951 -75.21043 38041 ft 436 kts 290°
2026-05-07 23:27 23.50856 -75.27322 38039 ft 435 kts 290°
2026-05-07 23:28 23.52740 -75.33543 38042 ft 435 kts 290°
2026-05-07 23:28 23.54634 -75.39807 38043 ft 434 kts 290°
2026-05-07 23:29 23.56521 -75.46059 38044 ft 434 kts 290°
2026-05-07 23:29 23.58396 -75.52282 38043 ft 434 kts 290°
2026-05-07 23:30 23.60278 -75.58537 38044 ft 434 kts 290°
2026-05-07 23:30 23.62158 -75.64798 38045 ft 434 kts 290°
2026-05-07 23:31 23.64027 -75.71030 38047 ft 434 kts 290°
2026-05-07 23:31 23.65900 -75.77285 38043 ft 434 kts 290°
2026-05-07 23:32 23.67772 -75.83550 38040 ft 434 kts 290°
2026-05-07 23:32 23.69632 -75.89784 38041 ft 434 kts 290°
2026-05-07 23:33 23.71503 -75.96064 38042 ft 434 kts 290°
2026-05-07 23:33 23.73368 -76.02334 38041 ft 434 kts 290°
2026-05-07 23:34 23.74917 -76.07549 38041 ft 433 kts 290°
2026-05-07 23:34 23.76764 -76.13779 38042 ft 433 kts 290°
2026-05-07 23:35 23.78619 -76.20045 38042 ft 433 kts 290°
2026-05-07 23:35 23.80470 -76.26309 38043 ft 432 kts 290°
2026-05-07 23:36 23.82315 -76.32560 38037 ft 432 kts 290°
2026-05-07 23:36 23.84144 -76.38768 38038 ft 432 kts 289°
2026-05-07 23:37 23.85983 -76.45022 38037 ft 431 kts 289°
2026-05-07 23:37 23.87809 -76.51243 38043 ft 431 kts 289°
2026-05-07 23:38 23.89641 -76.57492 38043 ft 431 kts 289°
2026-05-07 23:38 23.91468 -76.63736 38051 ft 431 kts 289°
2026-05-07 23:39 23.93290 -76.69972 38035 ft 431 kts 289°
2026-05-07 23:39 23.95100 -76.76179 38051 ft 430 kts 289°
2026-05-07 23:40 23.96920 -76.82429 38043 ft 430 kts 289°
2026-05-07 23:40 23.98734 -76.88668 38037 ft 430 kts 289°
2026-05-07 23:41 24.00535 -76.94874 38046 ft 430 kts 289°
2026-05-07 23:41 24.02344 -77.01120 38045 ft 430 kts 289°
2026-05-07 23:42 24.04151 -77.07367 38037 ft 430 kts 289°
2026-05-07 23:42 24.05946 -77.13582 38034 ft 430 kts 289°
2026-05-07 23:43 24.07749 -77.19838 38043 ft 430 kts 289°
2026-05-07 23:43 24.09549 -77.26091 38038 ft 430 kts 289°
2026-05-07 23:44 24.11333 -77.32304 38035 ft 430 kts 289°
2026-05-07 23:44 24.13130 -77.38568 38038 ft 430 kts 289°
2026-05-07 23:45 24.14908 -77.44777 38033 ft 429 kts 289°
2026-05-07 23:45 24.16691 -77.51016 38031 ft 429 kts 289°
2026-05-07 23:46 24.18476 -77.57271 38032 ft 429 kts 289°
2026-05-07 23:46 24.20255 -77.63517 38042 ft 429 kts 288°
2026-05-07 23:47 24.22018 -77.69718 38027 ft 429 kts 288°
2026-05-07 23:47 24.23789 -77.75958 38029 ft 428 kts 288°
2026-05-07 23:48 24.25559 -77.82205 38028 ft 428 kts 288°
2026-05-07 23:48 24.27537 -77.88351 38015 ft 427 kts 301°
2026-05-07 23:49 24.30798 -77.93724 38038 ft 426 kts 305°
2026-05-07 23:49 24.34178 -77.99062 38025 ft 426 kts 304°
2026-05-07 23:50 24.37527 -78.04437 38037 ft 426 kts 304°
2026-05-07 23:50 24.40850 -78.09840 38033 ft 427 kts 304°
2026-05-07 23:51 24.44150 -78.15230 38035 ft 427 kts 303°
2026-05-07 23:51 24.47467 -78.20656 38039 ft 427 kts 303°
2026-05-07 23:52 24.50786 -78.26090 38048 ft 427 kts 303°
2026-05-07 23:52 24.54076 -78.31480 38029 ft 428 kts 303°
2026-05-07 23:53 24.57389 -78.36913 38028 ft 428 kts 303°
2026-05-07 23:53 24.60703 -78.42357 38030 ft 427 kts 303°
2026-05-07 23:54 24.64016 -78.47802 38033 ft 427 kts 303°
2026-05-07 23:54 24.67300 -78.53208 38029 ft 427 kts 303°
2026-05-07 23:55 24.70611 -78.58664 38032 ft 427 kts 303°
2026-05-07 23:55 24.73904 -78.64097 37627 ft 433 kts 303°
2026-05-07 23:56 24.75576 -78.66857 37092 ft 431 kts 303°
2026-05-07 23:56 24.77236 -78.69599 36527 ft 428 kts 303°
2026-05-07 23:56 24.78886 -78.72326 35914 ft 427 kts 303°
2026-05-07 23:56 24.80540 -78.75060 35250 ft 431 kts 303°
2026-05-07 23:57 24.82189 -78.77784 34579 ft 434 kts 303°
2026-05-07 23:57 24.83860 -78.80547 34076 ft 432 kts 303°
2026-05-07 23:57 24.85523 -78.83298 33505 ft 430 kts 303°
2026-05-07 23:57 24.87183 -78.86047 32958 ft 428 kts 303°
2026-05-07 23:58 24.88832 -78.88779 32459 ft 430 kts 303°
2026-05-07 23:58 24.90498 -78.91540 31966 ft 433 kts 303°
2026-05-07 23:58 24.92167 -78.94310 31469 ft 432 kts 303°
2026-05-07 23:58 24.93819 -78.97051 30968 ft 426 kts 303°
2026-05-07 23:59 24.95428 -78.99723 30485 ft 421 kts 303°
2026-05-07 23:59 24.97041 -79.02404 29964 ft 418 kts 303°
2026-05-07 23:59 24.98642 -79.05066 29408 ft 413 kts 303°
2026-05-07 23:59 25.00225 -79.07698 28875 ft 410 kts 303°
2026-05-08 00:00 25.01793 -79.10308 28361 ft 406 kts 303°
2026-05-08 00:00 25.03351 -79.12902 27857 ft 403 kts 303°
2026-05-08 00:00 25.04876 -79.15442 27370 ft 400 kts 303°
2026-05-08 00:00 25.06413 -79.18002 26879 ft 398 kts 303°
2026-05-08 00:01 25.07941 -79.20550 26379 ft 396 kts 303°
2026-05-08 00:01 25.09457 -79.23080 25893 ft 394 kts 303°
2026-05-08 00:01 25.10948 -79.25570 25399 ft 393 kts 302°
2026-05-08 00:01 25.12457 -79.28092 24903 ft 392 kts 302°
2026-05-08 00:02 25.13961 -79.30607 24408 ft 391 kts 302°
2026-05-08 00:02 25.15459 -79.33112 23913 ft 389 kts 302°
2026-05-08 00:02 25.16948 -79.35604 23376 ft 387 kts 302°
2026-05-08 00:02 25.18409 -79.38049 22845 ft 384 kts 302°
2026-05-08 00:03 25.19876 -79.40507 22349 ft 380 kts 302°
2026-05-08 00:03 25.21329 -79.42941 21856 ft 377 kts 302°
2026-05-08 00:03 25.22772 -79.45360 21380 ft 374 kts 302°
2026-05-08 00:03 25.24200 -79.47755 20905 ft 372 kts 303°
2026-05-08 00:04 25.25618 -79.50134 20448 ft 370 kts 303°
2026-05-08 00:04 25.27009 -79.52471 19997 ft 368 kts 303°
2026-05-08 00:04 25.28419 -79.54839 19524 ft 367 kts 303°
2026-05-08 00:04 25.29823 -79.57200 19058 ft 366 kts 303°
2026-05-08 00:05 25.31220 -79.59550 18593 ft 365 kts 303°
2026-05-08 00:05 25.32613 -79.61894 18112 ft 364 kts 303°
2026-05-08 00:05 25.34000 -79.64230 17608 ft 363 kts 303°
2026-05-08 00:05 25.35372 -79.66539 17157 ft 361 kts 303°
2026-05-08 00:06 25.36745 -79.68853 16703 ft 360 kts 303°
2026-05-08 00:06 25.38118 -79.71167 16248 ft 359 kts 303°
2026-05-08 00:06 25.39492 -79.73461 15839 ft 357 kts 304°
2026-05-08 00:06 25.40916 -79.75698 15471 ft 354 kts 306°
2026-05-08 00:07 25.42352 -79.77902 15103 ft 352 kts 306°
2026-05-08 00:07 25.43780 -79.80095 14740 ft 350 kts 306°
2026-05-08 00:07 25.45195 -79.82285 14369 ft 349 kts 305°
2026-05-08 00:07 25.46602 -79.84475 13996 ft 348 kts 305°
2026-05-08 00:08 25.48001 -79.86657 13613 ft 347 kts 305°
2026-05-08 00:08 25.49380 -79.88811 13233 ft 345 kts 305°
2026-05-08 00:08 25.50771 -79.90982 12861 ft 344 kts 305°
2026-05-08 00:08 25.52155 -79.93145 12499 ft 343 kts 305°
2026-05-08 00:09 25.53515 -79.95270 12144 ft 341 kts 305°
2026-05-08 00:09 25.54881 -79.97407 11786 ft 337 kts 305°
2026-05-08 00:09 25.56233 -79.99520 11437 ft 335 kts 306°
2026-05-08 00:09 25.57575 -80.01621 11089 ft 333 kts 306°
2026-05-08 00:10 25.58909 -80.03709 10746 ft 332 kts 306°
2026-05-08 00:10 25.60241 -80.05795 10398 ft 327 kts 306°
2026-05-08 00:10 25.61528 -80.07813 10049 ft 314 kts 306°
2026-05-08 00:10 25.62769 -80.09758 9704 ft 303 kts 306°
2026-05-08 00:11 25.63965 -80.11634 9401 ft 299 kts 306°
2026-05-08 00:11 25.65151 -80.13494 9103 ft 292 kts 305°
2026-05-08 00:11 25.66177 -80.15425 8796 ft 288 kts 296°
2026-05-08 00:11 25.67007 -80.17438 8530 ft 285 kts 294°
2026-05-08 00:12 25.67805 -80.19412 8271 ft 281 kts 294°
2026-05-08 00:12 25.68614 -80.21372 8018 ft 278 kts 295°
2026-05-08 00:12 25.69421 -80.23308 7731 ft 275 kts 295°
2026-05-08 00:12 25.70228 -80.25220 7467 ft 273 kts 295°
2026-05-08 00:13 25.71007 -80.27126 7194 ft 271 kts 289°
2026-05-08 00:13 25.71225 -80.29196 6941 ft 275 kts 268°
2026-05-08 00:13 25.71118 -80.31337 6667 ft 280 kts 266°
2026-05-08 00:13 25.70999 -80.33502 6368 ft 278 kts 266°
2026-05-08 00:14 25.70887 -80.35620 6012 ft 271 kts 267°
2026-05-08 00:14 25.70784 -80.37675 5470 ft 265 kts 268°
2026-05-08 00:14 25.70685 -80.39704 4870 ft 262 kts 268°
2026-05-08 00:14 25.70589 -80.41703 4255 ft 258 kts 268°
2026-05-08 00:15 25.70495 -80.43664 3622 ft 257 kts 268°
2026-05-08 00:15 25.70377 -80.45631 3236 ft 257 kts 266°
2026-05-08 00:15 25.70240 -80.47617 3115 ft 257 kts 266°
2026-05-08 00:15 25.70103 -80.49542 3013 ft 241 kts 265°
2026-05-08 00:16 25.69968 -80.51319 2994 ft 224 kts 265°
2026-05-08 00:16 25.69838 -80.53014 2988 ft 218 kts 265°
2026-05-08 00:16 25.69715 -80.54689 3001 ft 219 kts 266°
2026-05-08 00:16 25.69606 -80.56388 3008 ft 221 kts 266°
2026-05-08 00:17 25.69568 -80.58069 2999 ft 221 kts 279°
2026-05-08 00:17 25.70217 -80.59592 2997 ft 221 kts 313°
2026-05-08 00:17 25.71518 -80.60478 3009 ft 221 kts 340°
2026-05-08 00:17 25.73015 -80.60874 2992 ft 223 kts 359°
2026-05-08 00:18 25.74491 -80.60400 2997 ft 224 kts 32°
2026-05-08 00:18 25.75575 -80.59159 3014 ft 225 kts 51°
2026-05-08 00:18 25.76515 -80.57761 3006 ft 227 kts 52°
2026-05-08 00:18 25.77311 -80.56252 2981 ft 229 kts 73°
2026-05-08 00:19 25.77501 -80.55111 3008 ft 227 kts 81°
2026-05-08 00:19 25.77695 -80.53365 3002 ft 228 kts 84°
2026-05-08 00:19 25.77802 -80.51611 3006 ft 228 kts 86°
2026-05-08 00:19 25.77895 -80.49301 2988 ft 220 kts 87°
2026-05-08 00:20 25.77938 -80.48168 2888 ft 214 kts 87°
2026-05-08 00:20 25.78002 -80.46541 2638 ft 208 kts 87°
2026-05-08 00:20 25.78065 -80.44964 2371 ft 199 kts 88°
2026-05-08 00:20 25.78123 -80.43507 2154 ft 183 kts 88°
2026-05-08 00:21 25.78179 -80.42150 1911 ft 169 kts 89°
2026-05-08 00:21 25.78229 -80.40899 1706 ft 155 kts 89°
2026-05-08 00:21 25.78276 -80.39723 1443 ft 150 kts 89°
2026-05-08 00:21 25.78327 -80.38571 1256 ft 150 kts 90°
2026-05-08 00:22 25.78369 -80.37425 1136 ft 146 kts 90°
2026-05-08 00:22 25.78416 -80.36307 914 ft 149 kts 90°
2026-05-08 00:22 25.78467 -80.35166 738 ft 146 kts 91°
2026-05-08 00:22 25.78513 -80.34057 598 ft 143 kts 91°
2026-05-08 00:23 25.78545 -80.32983 344 ft 137 kts 89°
2026-05-08 00:23 25.78601 -80.31920 177 ft 139 kts 91°
2026-05-08 00:23 25.78644 -80.30841 37 ft 138 kts 90°
2026-05-08 00:23 25.78680 -80.29863 16 ft 112 kts 88°
2026-05-08 00:24 25.78708 -80.29166 18 ft 69 kts 87°
2026-05-08 00:24 25.78729 -80.28861 17 ft 18 kts 79°
2026-05-08 00:24 25.78762 -80.28741 18 ft 14 kts 58°
2026-05-08 00:24 25.78808 -80.28688 15 ft 6 kts 41°
2026-05-08 00:25 25.78836 -80.28661 15 ft 0 kts 40°
2026-05-08 00:25 25.78843 -80.28655 15 ft 0 kts 40°
2026-05-08 00:25 25.78871 -80.28630 15 ft 10 kts 38°
2026-05-08 00:26 25.78955 -80.28561 16 ft 19 kts 35°
2026-05-08 00:26 25.79081 -80.28469 15 ft 23 kts 32°
2026-05-08 00:26 25.79177 -80.28407 17 ft 14 kts 17°
2026-05-08 00:26 25.79249 -80.28465 17 ft 14 kts 298°
2026-05-08 00:27 25.79295 -80.28555 17 ft 13 kts 298°
2026-05-08 00:27 25.79342 -80.28649 15 ft 16 kts 300°
2026-05-08 00:27 25.79404 -80.28766 14 ft 15 kts 307°
2026-05-08 00:27 25.79500 -80.28800 17 ft 15 kts 356°
2026-05-08 00:28 25.79601 -80.28806 19 ft 14 kts 357°
2026-05-08 00:28 25.79698 -80.28811 19 ft 14 kts 357°
2026-05-08 00:28 25.79790 -80.28817 19 ft 13 kts 357°
2026-05-08 00:28 25.79885 -80.28822 20 ft 15 kts
2026-05-08 00:29 25.79936 -80.28738 22 ft 15 kts 87°
2026-05-08 00:29 25.79942 -80.28607 18 ft 20 kts 87°
2026-05-08 00:29 25.79949 -80.28427 15 ft 26 kts 88°
2026-05-08 00:29 25.79957 -80.28231 14 ft 25 kts 87°
2026-05-08 00:30 25.79964 -80.28048 11 ft 23 kts 88°
2026-05-08 00:30 25.79972 -80.27873 13 ft 22 kts 87°
2026-05-08 00:30 25.79978 -80.27703 16 ft 22 kts 87°
2026-05-08 00:30 25.79975 -80.27565 17 ft 10 kts 109°
2026-05-08 00:31 25.79919 -80.27531 17 ft 9 kts 180°
2026-05-08 00:31 25.79865 -80.27509 18 ft 8 kts 136°
2026-05-08 00:31 25.79840 -80.27475 20 ft 4 kts 141°
2026-05-08 00:31 25.79816 -80.27469 19 ft 4 kts 178°
2026-05-08 00:32 25.79801 -80.27469 21 ft 0 kts 180°